Total_Precipitation_Accumulation
0.45 0.46 0.58 0.62 0.55 0.55 0.66 0.77 0.95 0.87 0.79 0.66 0.62 0.67 0.70 0.69 0.63 0.60 0.52 0.45 0.48 0.50 0.57 0.61 0.67 0.72 0.76 0.75 0.82 0.90 1.04 1.16 1.24 1.33 1.40 1.33 1.21 1.16 1.22 1.20 1.18 1.30 1.42 1.54
0.34 0.32 0.42 0.49 0.47 0.49 0.52 0.58 0.70 0.74 0.72 0.57 0.52 0.51 0.54 0.51 0.44 0.45 0.45 0.39 0.38 0.42 0.47 0.50 0.54 0.59 0.62 0.70 0.87 0.90 0.96 1.04 1.24 1.35 1.29 1.24 1.14 1.11 1.11 1.10 1.11 1.18 1.28 1.47
0.54 0.39 0.46 0.69 0.64 0.64 0.67 0.62 0.65 0.60 0.50 0.33 0.32 0.34 0.39 0.40 0.38 0.41 0.40 0.35 0.33 0.35 0.38 0.40 0.45 0.54 0.60 0.68 0.81 0.85 0.89 1.03 1.24 1.26 1.18 1.10 1.14 1.16 1.09 1.07 1.11 1.18 1.22 1.22
0.67 0.63 0.97 1.02 0.71 0.69 0.68 0.49 0.35 0.29 0.25 0.22 0.29 0.28 0.26 0.28 0.30 0.34 0.33 0.29 0.29 0.29 0.30 0.34 0.38 0.47 0.55 0.62 0.67 0.74 0.80 0.93 1.12 1.14 1.11 1.15 1.13 1.11 1.03 0.98 0.98 1.02 1.05 1.10
0.80 0.81 0.93 0.81 0.55 0.49 0.52 0.40 0.22 0.21 0.21 0.20 0.23 0.22 0.19 0.19 0.20 0.21 0.23 0.20 0.20 0.21 0.25 0.28 0.28 0.34 0.41 0.46 0.52 0.56 0.66 0.81 0.92 0.94 1.00 1.03 1.00 1.02 0.97 0.89 0.89 0.91 0.96 1.03
0.98 1.09 1.01 0.60 0.37 0.34 0.44 0.58 0.26 0.20 0.20 0.17 0.17 0.24 0.20 0.14 0.13 0.14 0.14 0.13 0.14 0.16 0.20 0.24 0.24 0.26 0.31 0.39 0.43 0.48 0.60 0.72 0.82 0.84 0.87 0.90 0.95 0.97 0.97 0.92 0.89 0.91 0.95 0.96
0.92 1.14 0.92 0.45 0.32 0.35 0.62 0.71 0.36 0.25 0.22 0.18 0.16 0.17 0.15 0.13 0.12 0.12 0.12 0.12 0.12 0.15 0.21 0.24 0.25 0.24 0.25 0.31 0.36 0.43 0.49 0.61 0.69 0.72 0.79 0.89 0.98 1.00 1.04 1.01 0.94 0.93 0.98 1.00
0.83 1.08 0.97 0.46 0.41 0.55 0.60 0.45 0.36 0.30 0.26 0.20 0.15 0.11 0.09 0.10 0.10 0.11 0.11 0.11 0.12 0.15 0.22 0.26 0.27 0.25 0.24 0.27 0.33 0.37 0.39 0.47 0.61 0.71 0.78 0.87 0.98 1.04 1.03 1.03 1.04 1.05 1.03 1.06
0.89 1.00 0.68 0.46 0.50 0.50 0.44 0.40 0.30 0.22 0.20 0.18 0.15 0.12 0.10 0.09 0.10 0.11 0.12 0.12 0.13 0.16 0.22 0.22 0.25 0.28 0.28 0.31 0.33 0.32 0.35 0.39 0.47 0.54 0.59 0.69 0.81 0.93 0.99 0.99 0.99 1.01 1.07 1.14
0.70 0.60 0.40 0.37 0.39 0.35 0.33 0.30 0.23 0.20 0.16 0.15 0.14 0.12 0.12 0.11 0.12 0.12 0.13 0.12 0.14 0.18 0.20 0.21 0.22 0.25 0.28 0.30 0.31 0.33 0.35 0.37 0.40 0.42 0.45 0.53 0.67 0.75 0.80 0.86 0.92 1.00 1.07 1.18
0.68 0.60 0.43 0.34 0.34 0.31 0.28 0.22 0.19 0.21 0.20 0.18 0.16 0.13 0.11 0.10 0.11 0.11 0.12 0.12 0.14 0.16 0.19 0.22 0.22 0.23 0.25 0.25 0.27 0.30 0.33 0.36 0.38 0.40 0.43 0.48 0.56 0.69 0.77 0.83 0.91 0.98 1.05 1.19
0.73 0.61 0.56 0.39 0.31 0.26 0.25 0.21 0.18 0.19 0.20 0.21 0.22 0.21 0.14 0.11 0.10 0.11 0.13 0.14 0.16 0.17 0.19 0.22 0.22 0.21 0.24 0.25 0.27 0.33 0.37 0.37 0.39 0.42 0.46 0.49 0.55 0.65 0.73 0.75 0.78 0.82 0.89 0.96
0.48 0.44 0.39 0.31 0.25 0.22 0.21 0.18 0.15 0.14 0.15 0.16 0.18 0.23 0.23 0.19 0.16 0.14 0.15 0.17 0.19 0.21 0.20 0.20 0.21 0.21 0.23 0.26 0.32 0.42 0.47 0.45 0.44 0.45 0.51 0.58 0.60 0.62 0.68 0.70 0.72 0.74 0.77 0.84
0.34 0.33 0.34 0.29 0.23 0.20 0.19 0.16 0.14 0.15 0.16 0.17 0.17 0.19 0.22 0.23 0.22 0.19 0.19 0.19 0.21 0.21 0.21 0.19 0.19 0.22 0.25 0.27 0.31 0.36 0.39 0.43 0.46 0.51 0.51 0.56 0.64 0.72 0.78 0.84 0.80 0.73 0.73 0.80
0.32 0.31 0.34 0.29 0.22 0.20 0.21 0.22 0.21 0.20 0.19 0.17 0.17 0.19 0.21 0.20 0.20 0.20 0.20 0.19 0.19 0.20 0.20 0.19 0.19 0.21 0.24 0.26 0.27 0.31 0.36 0.43 0.53 0.57 0.56 0.57 0.69 0.81 0.87 0.89 0.87 0.79 0.71 0.71
0.29 0.26 0.27 0.28 0.25 0.19 0.20 0.23 0.24 0.23 0.21 0.19 0.18 0.18 0.20 0.22 0.24 0.25 0.25 0.25 0.22 0.22 0.21 0.20 0.20 0.21 0.23 0.26 0.29 0.33 0.38 0.48 0.58 0.64 0.60 0.61 0.66 0.70 0.73 0.79 0.80 0.77 0.75 0.78
0.31 0.34 0.34 0.33 0.30 0.25 0.22 0.22 0.24 0.24 0.22 0.21 0.21 0.24 0.26 0.29 0.31 0.28 0.29 0.32 0.32 0.30 0.29 0.30 0.28 0.27 0.29 0.32 0.34 0.41 0.49 0.51 0.55 0.62 0.61 0.59 0.60 0.59 0.63 0.69 0.68 0.68 0.70 0.75
0.31 0.34 0.38 0.42 0.42 0.35 0.28 0.26 0.28 0.31 0.29 0.25 0.23 0.28 0.32 0.33 0.34 0.33 0.34 0.35 0.34 0.32 0.34 0.38 0.39 0.38 0.37 0.40 0.44 0.46 0.51 0.53 0.53 0.60 0.64 0.60 0.58 0.60 0.66 0.67 0.67 0.65 0.64 0.66
0.29 0.30 0.33 0.38 0.42 0.43 0.38 0.35 0.34 0.34 0.31 0.29 0.29 0.35 0.39 0.37 0.35 0.33 0.35 0.39 0.42 0.42 0.41 0.42 0.46 0.42 0.41 0.46 0.52 0.53 0.54 0.54 0.55 0.59 0.61 0.61 0.60 0.62 0.68 0.71 0.70 0.68 0.67 0.68
0.32 0.33 0.35 0.37 0.38 0.42 0.42 0.42 0.41 0.40 0.37 0.36 0.38 0.40 0.43 0.40 0.38 0.37 0.39 0.41 0.43 0.43 0.43 0.47 0.44 0.40 0.41 0.45 0.51 0.51 0.55 0.57 0.60 0.63 0.63 0.66 0.71 0.72 0.71 0.73 0.74 0.72 0.70 0.69
0.32 0.35 0.38 0.39 0.38 0.38 0.43 0.44 0.44 0.45 0.44 0.42 0.41 0.43 0.42 0.39 0.40 0.43 0.47 0.48 0.44 0.43 0.45 0.50 0.47 0.45 0.45 0.50 0.51 0.48 0.53 0.54 0.57 0.63 0.65 0.68 0.74 0.75 0.73 0.73 0.75 0.78 0.80 0.77
0.30 0.33 0.35 0.36 0.38 0.41 0.44 0.45 0.42 0.39 0.39 0.41 0.41 0.40 0.42 0.43 0.44 0.43 0.44 0.47 0.47 0.51 0.52 0.52 0.52 0.58 0.62 0.59 0.50 0.49 0.52 0.55 0.60 0.68 0.70 0.71 0.75 0.77 0.76 0.74 0.77 0.80 0.83 0.86
0.28 0.31 0.35 0.37 0.40 0.43 0.45 0.47 0.47 0.41 0.37 0.42 0.47 0.50 0.52 0.54 0.52 0.51 0.52 0.50 0.53 0.56 0.48 0.51 0.64 0.75 0.77 0.63 0.57 0.54 0.53 0.58 0.65 0.73 0.77 0.79 0.82 0.84 0.86 0.85 0.85 0.87 0.91 0.98
0.28 0.29 0.34 0.38 0.37 0.39 0.46 0.50 0.49 0.45 0.41 0.43 0.51 0.55 0.57 0.57 0.54 0.53 0.56 0.60 0.65 0.63 0.50 0.53 0.64 0.73 0.75 0.65 0.65 0.65 0.63 0.65 0.70 0.74 0.77 0.81 0.88 0.92 0.93 0.96 0.98 0.96 0.95 0.99
0.28 0.30 0.33 0.38 0.39 0.40 0.43 0.43 0.43 0.44 0.45 0.47 0.49 0.50 0.53 0.55 0.57 0.56 0.55 0.56 0.64 0.66 0.60 0.63 0.70 0.73 0.67 0.65 0.70 0.73 0.73 0.75 0.79 0.83 0.85 0.90 0.94 0.97 0.99 1.00 1.02 1.06 1.08 1.10
0.31 0.32 0.35 0.39 0.41 0.41 0.41 0.42 0.43 0.43 0.44 0.47 0.49 0.49 0.50 0.51 0.51 0.53 0.53 0.54 0.57 0.62 0.62 0.64 0.65 0.68 0.65 0.64 0.66 0.69 0.69 0.73 0.79 0.82 0.84 0.90 0.96 1.00 1.01 1.01 1.02 1.07 1.12 1.17
0.34 0.33 0.34 0.35 0.35 0.36 0.39 0.40 0.44 0.48 0.49 0.48 0.50 0.49 0.49 0.52 0.52 0.52 0.51 0.53 0.56 0.58 0.62 0.67 0.70 0.69 0.69 0.72 0.73 0.69 0.68 0.70 0.70 0.73 0.79 0.85 0.93 1.01 1.04 1.07 1.11 1.15 1.19 1.23